Zurück zum Katalog

STARLINK-37093

AktivKommunikationVLEO
NORAD 68194·PAYLOAD·🇺🇸 United States

Gestartet Mar 14, 2026 von Vandenberg Space Force Base

Loading…

Nächste Überflüge (nächste 24 Stunden)

TLE

AktuellSource: CelesTrak SupGP

Epoche: Sep 14, 2026, 14:43 UTC

1 68194C 26050AD  26257.61368056  .00011485  00000+0  33922-3 0  2575
2 68194  53.1569 105.2556 0001397 103.5269 269.2077 15.34394812    13

Verfolge STARLINK-37093 in Echtzeit mit AllMySat

Download on the App Store